User: anonymous   Login
Location: Carbonear
(47.7333°N, 53.2500°W)
Time: 12:32:15
(UTC+00:00)
Language:

UNISAT 6 - Orbit

View from above orbital plane
View from above orbital plane
View from above satellite
View from above satellite

Ground track
Ground track

The orbit data is extracted from the following two-line orbital elements,

1 40012U 14033C   22341.76323037  .00001705  00000-0  25202-3 0  9998
2 40012  97.6606 160.5564 0056049 318.5887  41.1081 14.75412374455539
Epoch (UTC): 07 December 2022 18:19:03
Eccentricity: 0.0056049
inclination: 97.6606°
perigee height: 604 km
apogee height: 683 km
right ascension of ascending node: 160.5564°
argument of perigee: 318.5887°
revolutions per day: 14.75412374
mean anomaly at epoch: 41.1081°
orbit number at epoch: 45553

The dashed part of the orbit path shows where the satellite is in the earth's shadow,  

DLR